| time (UTC) | temp F | wind direction | speed knots | gust knots | rain 1hr in | rain 24hr in | rain mn in | humidity % | barometer mb |
| 20260902173053 | 67 | 196 | 0.0 | 0.0 | 0.00 | 0.00 | 0.20 | 100 | 1018.5 |
| 20260902171603 | 66 | 196 | 0.0 | 0.0 | 0.00 | 0.00 | 0.19 | 100 | 1019.1 |
| 20260902170047 | 66 | 196 | 1.7 | 0.0 | 0.00 | 0.00 | 0.16 | 100 | 1019.4 |
| 20260902164540 | 67 | 203 | 2.6 | 0.0 | 0.00 | 0.00 | 0.11 | 100 | 1020.5 |
| 20260902163036 | 68 | 236 | 2.6 | 0.0 | 0.00 | 0.00 | 0.01 | 100 | 1020.8 |
| 20260902161532 | 68 | 97 | 0.0 | 0.0 | 0.00 | 0.00 | 0.00 | 100 | 1019.5 |
| 20260902160027 | 68 | 82 | 0.0 | 0.0 | 0.00 | 0.00 | 0.00 | 100 | 1019.1 |
| 20260902154521 | 68 | 80 | 0.0 | 0.0 | 0.00 | 0.00 | 0.00 | 100 | 1019.2 |
| 20260902153020 | 69 | 135 | 0.9 | 0.0 | 0.00 | 0.00 | 0.00 | 100 | 1019.2 |
| 20260902151513 | 69 | 143 | 0.0 | 0.0 | 0.00 | 0.00 | 0.00 | 100 | 1019.1 |
| 20260902150014 | 70 | 169 | 0.9 | 0.0 | 0.00 | 0.00 | 0.00 | 100 | 1019.2 |
| 20260902144510 | 70 | 175 | 0.9 | 0.0 | 0.00 | 0.00 | 0.00 | 100 | 1019.0 |
| 20260902143008 | 70 | 177 | 0.0 | 0.0 | 0.00 | 0.00 | 0.00 | 100 | 1019.1 |
| 20260902141501 | 69 | 186 | 2.6 | 0.0 | 0.00 | 0.00 | 0.00 | 100 | 1019.3 |
| 20260902140058 | 68 | 186 | 2.6 | 0.0 | 0.00 | 0.00 | 0.00 | 100 | 1019.5 |
| 20260902134557 | 68 | 64 | 0.0 | 0.0 | 0.00 | 0.00 | 0.00 | 100 | 1019.1 |
| 20260902133104 | 67 | 64 | 0.0 | 0.0 | 0.00 | 0.00 | 0.00 | 100 | 1019.1 |
| 20260902131550 | 66 | 63 | 0.9 | 0.0 | 0.00 | 0.00 | 0.00 | 100 | 1019.1 |
| 20260902130044 | 66 | 62 | 0.9 | 0.0 | 0.00 | 0.00 | 0.00 | 100 | 1019.2 |
| 20260902124537 | 66 | 63 | 0.0 | 0.0 | 0.00 | 0.00 | 0.00 | 100 | 1018.9 |
| 20260902123035 | 65 | 63 | 0.0 | 0.0 | 0.00 | 0.00 | 0.00 | 100 | 1018.9 |
| 20260902121528 | 65 | 63 | 0.0 | 0.0 | 0.00 | 0.00 | 0.00 | 100 | 1018.7 |
| 20260902120030 | 65 | 63 | 1.7 | 0.0 | 0.00 | 0.00 | 0.00 | 100 | 1018.5 |
| 20260902114519 | 65 | 63 | 0.0 | 0.0 | 0.00 | 0.00 | 0.00 | 100 | 1018.4 |
| 20260902113015 | 0 | 0.0 | 0.0 | 0.00 | 0.00 | 0.00 | 1018.5 | ||
| 20260902111532 | 0 | 0.0 | 0.0 | 0.00 | 0.00 | 0.00 | 1018.5 | ||
| 20260902110019 | 0 | 0.0 | 0.0 | 0.00 | 0.00 | 0.00 | 1018.9 | ||
| 20260902104502 | 0 | 0.0 | 0.0 | 0.00 | 0.00 | 0.00 | 1019.3 | ||
| 20260902103057 | 64 | 63 | 0.9 | 0.0 | 0.00 | 0.00 | 0.00 | 100 | 1019.0 |
| 20260902101553 | 64 | 61 | 0.9 | 0.0 | 0.00 | 0.00 | 0.00 | 100 | 1019.0 |
| 20260902100049 | 64 | 61 | 0.0 | 0.0 | 0.00 | 0.00 | 0.00 | 100 | 1018.8 |
| 20260902094551 | 64 | 60 | 0.0 | 0.0 | 0.00 | 0.00 | 0.00 | 100 | 1018.7 |
| 20260902093044 | 64 | 60 | 0.0 | 0.0 | 0.00 | 0.00 | 0.00 | 100 | 1018.7 |
| 20260902091539 | 64 | 60 | 0.0 | 0.0 | 0.00 | 0.00 | 0.00 | 100 | 1018.6 |
| 20260902090034 | 64 | 61 | 0.9 | 0.0 | 0.00 | 0.00 | 0.00 | 100 | 1018.5 |
| 20260902084539 | 64 | 61 | 1.7 | 0.0 | 0.00 | 0.00 | 0.00 | 100 | 1018.2 |
| 20260902083027 | 64 | 58 | 0.9 | 0.0 | 0.00 | 0.00 | 0.00 | 100 | 1018.2 |
| 20260902081522 | 64 | 60 | 1.7 | 0.0 | 0.00 | 0.00 | 0.00 | 100 | 1017.9 |
| 20260902080019 | 64 | 65 | 0.9 | 0.0 | 0.00 | 0.00 | 0.00 | 100 | 1018.0 |
| 20260902074516 | 65 | 64 | 2.6 | 0.0 | 0.00 | 0.00 | 0.00 | 100 | 1017.6 |
| 20260902073011 | 65 | 71 | 2.6 | 0.0 | 0.00 | 0.00 | 0.00 | 100 | 1017.9 |
| 20260902071507 | 65 | 72 | 1.7 | 0.0 | 0.00 | 0.00 | 0.00 | 100 | 1018.1 |
| 20260902070003 | 66 | 71 | 1.7 | 0.0 | 0.00 | 0.00 | 0.00 | 100 | 1018.0 |
| 20260902064500 | 66 | 62 | 0.9 | 0.0 | 0.00 | 0.00 | 0.00 | 100 | 1018.1 |
| 20260902063103 | 66 | 66 | 0.9 | 0.0 | 0.00 | 0.00 | 0.00 | 100 | 1018.2 |
| 20260902061610 | 66 | 62 | 0.0 | 0.0 | 0.00 | 0.00 | 0.00 | 100 | 1018.2 |
| 20260902060050 | 66 | 62 | 0.0 | 0.0 | 0.00 | 0.00 | 0.00 | 100 | 1018.2 |
| 20260902054548 | 66 | 62 | 0.0 | 0.0 | 0.00 | 0.00 | 0.00 | 100 | 1018.1 |
| 20260902053041 | 66 | 62 | 0.0 | 0.0 | 0.00 | 0.00 | 0.00 | 100 | 1018.1 |
| 20260902051536 | 66 | 62 | 0.0 | 0.0 | 0.00 | 0.00 | 0.00 | 100 | 1018.1 |
| 20260902050032 | 66 | 60 | 0.9 | 0.0 | 0.00 | 0.00 | 0.00 | 100 | 1017.9 |
| 20260902044529 | 66 | 67 | 0.0 | 0.0 | 0.00 | 0.00 | 0.00 | 100 | 1017.6 |
| 20260902043024 | 66 | 67 | 0.0 | 0.0 | 0.00 | 0.00 | 0.00 | 100 | 1017.5 |
| 20260902041520 | 66 | 74 | 1.7 | 0.0 | 0.00 | 0.00 | 0.00 | 100 | 1017.5 |
| 20260902040016 | 66 | 60 | 1.7 | 0.0 | 0.00 | 0.00 | 0.00 | 100 | 1017.3 |
| 20260902034513 | 66 | 71 | 1.7 | 0.0 | 0.00 | 0.00 | 0.11 | 100 | 1017.1 |
| 20260902033012 | 66 | 73 | 0.9 | 0.0 | 0.00 | 0.00 | 0.11 | 100 | 1017.1 |
| 20260902031505 | 66 | 70 | 0.9 | 0.0 | 0.00 | 0.00 | 0.11 | 100 | 1017.1 |
| 20260902023100 | 66 | 53 | 1.7 | 0.0 | 0.00 | 0.00 | 0.11 | 100 | 1017.3 |
| 20260902021554 | 66 | 57 | 0.9 | 0.0 | 0.00 | 0.00 | 0.11 | 100 | 1017.4 |
| 20260902020046 | 67 | 68 | 0.9 | 0.0 | 0.00 | 0.00 | 0.11 | 100 | 1017.3 |
| 20260902013038 | 67 | 59 | 1.7 | 0.0 | 0.00 | 0.00 | 0.11 | 100 | 1017.1 |
| 20260902011534 | 67 | 59 | 1.7 | 0.0 | 0.00 | 0.00 | 0.11 | 100 | 1016.9 |
| 20260902010041 | 67 | 42 | 0.0 | 0.0 | 0.00 | 0.00 | 0.11 | 100 | 1016.8 |
| 20260902003021 | 67 | 34 | 0.0 | 0.0 | 0.00 | 0.00 | 0.11 | 100 | 1016.2 |
| 20260902001517 | 67 | 33 | 0.9 | 0.0 | 0.00 | 0.00 | 0.11 | 100 | 1016.2 |
| 20260902000022 | 67 | 61 | 0.9 | 0.0 | 0.00 | 0.00 | 0.11 | 100 | 1016.0 |
| 20260901233010 | 67 | 63 | 2.6 | 0.0 | 0.00 | 0.00 | 0.11 | 100 | 1016.2 |
| 20260901231502 | 68 | 27 | 0.0 | 0.0 | 0.00 | 0.00 | 0.11 | 100 | 1016.2 |
| 20260901230058 | 68 | 20 | 0.9 | 0.0 | 0.00 | 0.00 | 0.11 | 100 | 1015.8 |
| 20260901223051 | 69 | 31 | 0.9 | 0.0 | 0.00 | 0.00 | 0.11 | 100 | 1016.0 |
| 20260901221615 | 69 | 41 | 0.0 | 0.0 | 0.00 | 0.00 | 0.11 | 100 | 1016.1 |
| 20260901220042 | 69 | 45 | 1.7 | 0.0 | 0.00 | 0.00 | 0.11 | 100 | 1016.3 |
| 20260901213058 | 68 | 57 | 0.9 | 0.0 | 0.00 | 0.00 | 0.11 | 100 | 1015.5 |
| 20260901211541 | 68 | 23 | 0.9 | 0.0 | 0.00 | 0.00 | 0.11 | 100 | 1015.7 |
| 20260901210037 | 68 | 43 | 0.9 | 0.0 | 0.00 | 0.00 | 0.11 | 100 | 1015.7 |
| 20260901203032 | 68 | 53 | 0.9 | 0.0 | 0.00 | 0.00 | 0.11 | 100 | 1015.4 |
| 20260901201516 | 69 | 60 | 0.0 | 0.0 | 0.00 | 0.00 | 0.10 | 100 | 1015.5 |
| 20260901200025 | 69 | 59 | 0.0 | 0.0 | 0.00 | 0.00 | 0.09 | 100 | 1015.4 |
| 20260901193008 | 70 | 77 | 1.7 | 0.0 | 0.00 | 0.00 | 0.09 | 100 | 1015.3 |
| 20260901191503 | 72 | 189 | 0.0 | 0.0 | 0.00 | 0.00 | 0.09 | 100 | 1015.2 |
| 20260901190059 | 72 | 202 | 0.0 | 0.0 | 0.00 | 0.00 | 0.09 | 100 | 1015.1 |
| 20260901183051 | 73 | 202 | 0.0 | 0.0 | 0.00 | 0.00 | 0.08 | 100 | 1015.0 |
| 20260901181543 | 74 | 202 | 0.0 | 0.0 | 0.00 | 0.00 | 0.07 | 100 | 1014.9 |
| 20260901180039 | 75 | 202 | 0.0 | 0.0 | 0.00 | 0.00 | 0.07 | 5 | 1014.9 |